This is the latest recevied weather packets stored in our database for station/object HB9TJM-8. If no packets are shown the sender has not sent any weather packets the latest 10 day(s).
| Time | Temp. | Humidity | Pressure | Rain* | Wind** | Luminosity | Snow |
|---|---|---|---|---|---|---|---|
| 1777528348 | 7.78° C | 58% | 1020.3 hPa | 0 mm | - | 85 W/m² | - |
| 1777528040 | 7.22° C | 58% | 1020.6 hPa | 0 mm | - | 74 W/m² | - |
| 1777527733 | 7.22° C | 59% | 1020.6 hPa | 0 mm | - | 66 W/m² | - |
| 1777527426 | 7.22° C | 59% | 1020.5 hPa | 0 mm | - | 61 W/m² | - |
| 1777527118 | 7.22° C | 58% | 1020.5 hPa | 0 mm | - | 56 W/m² | - |
| 1777526811 | 7.22° C | 57% | 1020.7 hPa | 0 mm | - | 51 W/m² | - |
| 1777526503 | 7.22° C | 57% | 1020.3 hPa | 0 mm | - | 48 W/m² | - |
| 1777526196 | 7.22° C | 58% | 1019.9 hPa | 0 mm | - | 44 W/m² | - |
| 1777525581 | 6.67° C | 58% | 1020.5 hPa | 0 mm | - | 36 W/m² | - |
| 1777525273 | 6.67° C | 59% | 1020.7 hPa | 0 mm | - | 31 W/m² | - |
| 1777524966 | 6.67° C | 59% | 1020.5 hPa | 0 mm | - | 27 W/m² | - |
| 1777524659 | 6.67° C | 60% | 1020.4 hPa | 0 mm | - | 22 W/m² | - |
| 1777524352 | 6.11° C | 59% | 1020.3 hPa | 0 mm | - | 15 W/m² | - |
| 1777524351 | 6.11° C | 59% | 1020.3 hPa | 0 mm | - | 15 W/m² | - |
| 1777524044 | 6.11° C | 59% | 1020.4 hPa | 0 mm | - | 13 W/m² | - |
| 1777524044 | 6.11° C | 59% | 1020.4 hPa | 0 mm | - | 13 W/m² | - |
| 1777523737 | 6.11° C | 59% | 1020.1 hPa | 0 mm | - | 10 W/m² | - |
| 1777523737 | 6.11° C | 59% | 1020.1 hPa | 0 mm | - | 10 W/m² | - |
| 1777523430 | 6.11° C | 59% | 1020.3 hPa | 0 mm | - | 7 W/m² | - |
| 1777523122 | 6.11° C | 59% | 1020.1 hPa | 0 mm | - | 4 W/m² | - |
| 1777522815 | 6.11° C | 58% | 1020.1 hPa | 0 mm | - | 2 W/m² | - |
| 1777522815 | 6.11° C | 58% | 1020.1 hPa | 0 mm | - | 2 W/m² | - |
| 1777522508 | 6.11° C | 58% | 1020 hPa | 0 mm | - | 1 W/m² | - |
| 1777522507 | 6.11° C | 58% | 1020 hPa | 0 mm | - | 1 W/m² | - |
| 1777522200 | 6.67° C | 57% | 1020.3 hPa | 0 mm | - | 0 W/m² | - |
* Rain latest hour (hover to see other rain measurements)
** Current wind speed in m/s (hover to see current wind gust speed)